KL7GG Weather Reports


Display with metric or nautical units.
time (UTC)temp
F
wind
direction
speed
MPH
gust
MPH
rain 1hr
in
rain 24hr
in
rain mn
in
humidity
%
barometer
mb
20260904154207 46 0 0.0 0.0 0.00 0.00 0.00 92 1018.3
20260904152703 46 0 0.0 0.0 0.00 0.00 0.00 92 1018.4
20260904151158 46 0 0.0 0.0 0.00 0.00 0.00 92 1018.4
20260904145655 46 0 0.0 0.0 0.00 0.00 0.00 92 1018.6
20260904144150 46 0 0.0 2.0 0.00 0.00 0.00 93 1018.4
20260904142647 46 0 0.0 2.0 0.00 0.00 0.00 93 1018.2
20260904141143 45 0 0.0 1.0 0.00 0.00 0.00 92 1018.3
20260904135637 45 0 0.0 0.0 0.00 0.00 0.00 92 1018.4
20260904134133 45 0 0.0 1.0 0.00 0.00 0.00 92 1018.3
20260904132629 45 0 0.0 0.0 0.00 0.00 0.00 91 1018.4
20260904131125 45 0 0.0 0.0 0.00 0.00 0.00 91 1018.2
20260904124114 45 0 0.0 0.0 0.00 0.00 0.00 90 1018.3
20260904122611 46 0 0.0 0.0 0.00 0.00 0.00 91 1018.4
20260904121106 46 0 0.0 0.0 0.00 0.00 0.00 90 1018.4
20260904115603 47 0 0.0 0.0 0.00 0.00 0.00 90 1018.5
20260904114059 47 0 0.0 0.0 0.00 0.00 0.00 90 1018.4
20260904112552 48 0 0.0 0.0 0.00 0.00 0.00 90 1018.3
20260904105543 48 0 0.0 0.0 0.00 0.00 0.00 90 1018.3
20260904102536 48 0 0.0 0.0 0.00 0.00 0.00 90 1018.3
20260904101031 47 0 0.0 3.0 0.00 0.00 0.00 89 1018.3
20260904095527 47 0 0.0 0.0 0.00 0.00 0.00 89 1017.8
20260904094023 47 0 0.0 0.0 0.00 0.00 0.00 89 1017.9
20260904092519 47 0 0.0 0.0 0.00 0.00 0.00 88 1017.9
20260904091014 48 0 0.0 0.0 0.00 0.00 0.00 88 1017.9
20260904085511 48 0 0.0 0.0 0.00 0.00 0.00 88 1018.1
20260904084004 48 0 0.0 0.0 0.00 0.00 0.00 88 1018.1
20260904082501 48 0 0.0 0.0 0.00 0.00 0.00 87 1018.2
20260904075453 49 0 0.0 1.0 0.00 0.00 0.00 86 1018.3
20260904073948 49 0 0.0 0.0 0.00 0.00 0.00 84 1018.4
20260904072445 50 0 0.0 0.0 0.00 0.00 0.00 84 1018.3
20260904070940 50 0 0.0 0.0 0.00 0.00 0.00 84 1018.1
20260904065437 51 0 0.0 0.0 0.00 0.00 0.00 83 1018.3
20260904063932 51 0 0.0 0.0 0.00 0.00 0.00 82 1018.2
20260904062429 51 0 0.0 0.0 0.00 0.00 0.00 81 1018.2
20260904060924 52 0 0.0 0.0 0.00 0.00 0.00 80 1018.3
20260904055421 52 0 0.0 0.0 0.00 0.00 0.00 81 1018.1
20260904053917 52 0 0.0 0.0 0.00 0.00 0.00 79 1018.2
20260904052412 53 0 0.0 0.0 0.00 0.00 0.00 77 1018.2
20260904050909 53 0 0.0 0.0 0.00 0.00 0.00 77 1018.1
20260904045404 54 0 0.0 0.0 0.00 0.00 0.00 75 1018.1
20260904043901 55 0 0.0 0.0 0.00 0.00 0.00 75 1018.3
20260904042357 55 0 0.0 0.0 0.00 0.00 0.00 73 1018.1
20260904040853 55 0 0.0 0.0 0.00 0.00 0.00 72 1018.1
20260904035349 56 0 0.0 0.0 0.00 0.00 0.00 69 1018.3
20260904033846 57 0 0.0 0.0 0.00 0.00 0.00 69 1018.1
20260904032340 58 0 0.0 0.0 0.00 0.00 0.00 68 1018.0
20260904030837 59 0 0.0 0.0 0.00 0.00 0.00 64 1018.0
20260904023828 60 0 0.0 1.0 0.00 0.00 0.00 61 1017.8
20260904022322 59 0 0.0 0.0 0.00 0.00 0.00 62 1017.9
20260904020819 60 0 0.0 1.0 0.00 0.00 0.00 62 1017.6
20260904015315 61 0 0.0 0.0 0.00 0.00 0.00 58 1017.7
20260904013811 62 0 0.0 0.0 0.00 0.00 0.00 50 1017.6
20260904012306 62 0 0.0 2.0 0.00 0.00 0.00 50 1017.5
20260904010803 63 0 0.0 6.0 0.00 0.00 0.00 47 1017.2
20260904005259 64 0 0.0 1.0 0.00 0.00 0.00 47 1017.1
20260904003756 64 329 3.0 11.0 0.00 0.00 0.00 48 1017.5
20260904000745 65 333 4.0 11.0 0.00 0.00 0.00 51 1017.5
20260903235240 65 0 0.0 12.0 0.00 0.00 0.00 49 1017.2
20260903233735 64 294 3.0 12.0 0.00 0.00 0.00 47 1017.1
20260903232230 64 284 2.0 9.0 0.00 0.00 0.00 46 1017.1
20260903230727 64 0 0.0 4.0 0.00 0.00 0.00 50 1017.0
20260903225221 63 0 0.0 0.0 0.00 0.00 0.00 50 1017.0
20260903223717 63 307 1.0 6.0 0.00 0.00 0.00 51 1017.2
20260903222211 62 0 0.0 3.0 0.00 0.00 0.00 50 1017.3
20260903215203 60 0 0.0 3.0 0.00 0.00 0.00 51 1017.6
20260903213659 60 0 0.0 0.0 0.00 0.00 0.00 51 1017.6
20260903212152 60 0 0.0 0.0 0.00 0.00 0.00 54 1017.6
20260903205144 60 0 0.0 7.0 0.00 0.00 0.00 52 1017.7
20260903200630 58 290 1.0 5.0 0.00 0.00 0.00 53 1017.6
20260903195127 56 0 0.0 1.0 0.00 0.00 0.00 58 1017.4
20260903193622 56 227 1.0 4.0 0.00 0.00 0.00 65 1017.5
20260903192119 55 0 0.0 0.0 0.00 0.00 0.00 64 1017.5
20260903190615 54 0 0.0 2.0 0.00 0.00 0.00 67 1017.5
20260903185110 53 0 0.0 0.0 0.00 0.00 0.00 69 1017.6
20260903183606 51 0 0.0 0.0 0.00 0.00 0.00 77 1017.9
20260903182103 48 0 0.0 1.0 0.00 0.00 0.00 84 1017.9
20260903180559 46 0 0.0 0.0 0.00 0.00 0.00 89 1017.8
20260903175055 45 0 0.0 0.0 0.00 0.00 0.00 90 1017.8
20260903172047 44 0 0.0 1.0 0.00 0.00 0.00 92 1017.7
20260903170542 43 0 0.0 0.0 0.00 0.00 0.00 92 1017.7
20260903165039 41 0 0.0 0.0 0.00 0.00 0.00 91 1017.4
20260903163533 41 0 0.0 0.0 0.00 0.00 0.00 91 1017.2
20260903155020 41 0 0.0 0.0 0.00 0.00 0.00 89 1017.3